FW7253 Weather Reports


Display with metric or nautical units.
time (UTC)temp
F
wind
direction
speed
MPH
gust
MPH
rain 1hr
in
rain 24hr
in
rain mn
in
humidity
%
barometer
mb
20260831124551 69 122 6.0 10.0 0.00 0.00 0.00 67 1005.1
20260831124034 69 110 3.0 10.0 0.00 0.00 0.00 67 1005.0
20260831123534 69 135 3.0 10.0 0.00 0.00 0.00 68 1005.0
20260831123047 69 64 3.0 7.0 0.00 0.00 0.00 69 1005.0
20260831122532 68 141 2.0 7.0 0.00 0.00 0.00 68 1005.1
20260831122034 68 98 4.0 7.0 0.00 0.00 0.00 69 1005.0
20260831121551 68 145 3.0 7.0 0.00 0.00 0.00 68 1005.0
20260831121034 68 110 2.0 7.0 0.00 0.00 0.00 69 1005.0
20260831120533 68 161 4.0 7.0 0.00 0.00 0.00 67 1005.0
20260831120051 68 110 2.0 5.0 0.00 0.00 0.00 67 1005.0
20260831115531 68 0 1.0 4.0 0.00 0.00 0.00 65 1004.9
20260831115031 68 196 1.0 3.0 0.00 0.00 0.00 67 1004.9
20260831114548 68 165 1.0 5.0 0.00 0.00 0.00 65 1005.0
20260831114034 69 162 2.0 7.0 0.00 0.00 0.00 65 1004.9
20260831113534 69 92 3.0 8.0 0.00 0.00 0.00 66 1004.9
20260831113054 68 127 4.0 8.0 0.00 0.00 0.00 68 1004.9
20260831112532 68 82 5.0 8.0 0.00 0.00 0.00 67 1004.8
20260831112039 69 123 1.0 6.0 0.00 0.00 0.00 63 1004.8
20260831111546 70 138 2.0 6.0 0.00 0.00 0.00 61 1004.7
20260831111031 70 107 3.0 6.0 0.00 0.00 0.00 60 1004.8
20260831110531 70 0 2.0 5.0 0.00 0.00 0.00 62 1004.7
20260831110051 69 329 2.0 5.0 0.00 0.00 0.00 62 1004.7
20260831105534 69 179 2.0 4.0 0.00 0.00 0.00 60 1004.7
20260831105032 69 219 1.0 4.0 0.00 0.00 0.00 63 1004.8
20260831104601 68 0 1.0 8.0 0.00 0.00 0.00 63 1004.9
20260831104032 68 48 2.0 8.0 0.00 0.00 0.00 60 1004.8
20260831103531 69 274 3.0 6.0 0.00 0.00 0.00 62 1004.8
20260831103048 69 209 3.0 7.0 0.00 0.00 0.00 62 1004.9
20260831102533 69 151 3.0 7.0 0.00 0.00 0.00 61 1004.8
20260831102036 69 207 2.0 7.0 0.00 0.00 0.00 60 1004.8
20260831101553 69 219 3.0 7.0 0.00 0.00 0.00 62 1004.9
20260831101032 70 143 1.0 5.0 0.00 0.00 0.00 60 1004.8
20260831100532 69 102 2.0 5.0 0.00 0.00 0.00 62 1004.9
20260831095534 69 237 2.0 5.0 0.00 0.00 0.00 61 1004.8
20260831095032 69 148 1.0 6.0 0.00 0.00 0.00 61 1004.8
20260831094547 69 142 3.0 6.0 0.00 0.00 0.00 62 1004.8
20260831094034 68 153 2.0 4.0 0.00 0.00 0.00 64 1004.8
20260831093532 68 194 1.0 3.0 0.00 0.00 0.00 64 1004.8
20260831093050 68 150 0.0 3.0 0.00 0.00 0.00 64 1004.8
20260831092534 67 309 1.0 3.0 0.00 0.00 0.00 67 1004.8
20260831092031 67 215 1.0 5.0 0.00 0.00 0.00 68 1004.8
20260831091545 66 303 2.0 5.0 0.00 0.00 0.00 70 1004.7
20260831091031 66 250 3.0 5.0 0.00 0.00 0.00 68 1004.7
20260831090534 66 161 1.0 4.0 0.00 0.00 0.00 70 1004.7
20260831090047 65 224 1.0 3.0 0.00 0.00 0.00 72 1004.6
20260831085532 64 348 2.0 3.0 0.00 0.00 0.00 74 1004.7
20260831085031 64 165 0.0 3.0 0.00 0.00 0.00 77 1004.7
20260831084607 63 104 1.0 3.0 0.00 0.00 0.00 85 1004.8
20260831084031 62 151 2.0 3.0 0.00 0.00 0.00 93 1004.8
20260831083531 61 160 2.0 3.0 0.00 0.00 0.00 95 1004.7
20260831083054 61 207 1.0 3.0 0.00 0.00 0.00 96 1004.8
20260831082531 60 195 2.0 3.0 0.00 0.00 0.00 96 1004.7
20260831082031 60 0 0.0 3.0 0.00 0.00 0.00 97 1004.7
20260831081547 59 195 0.0 3.0 0.00 0.00 0.00 97 1004.7
20260831081033 58 191 0.0 3.0 0.00 0.00 0.00 97 1004.8
20260831080532 57 0 0.0 0.0 0.00 0.00 0.00 97 1004.7
20260831080055 57 0 0.0 0.0 0.00 0.00 0.00 97 1004.7
20260831075531 57 0 0.0 0.0 0.00 0.00 0.00 97 1004.8
20260831075033 57 0 0.0 0.0 0.00 0.00 0.00 97 1004.8
20260831074546 56 0 0.0 0.0 0.00 0.00 0.00 97 1004.8
20260831074032 56 0 0.0 0.0 0.00 0.00 0.00 97 1004.8
20260831073535 56 0 0.0 0.0 0.00 0.00 0.00 97 1004.7
20260831073054 56 0 0.0 0.0 0.00 0.00 0.00 97 1004.7
20260831072530 55 0 0.0 0.0 0.00 0.00 0.00 97 1004.6
20260831072036 55 0 0.0 0.0 0.00 0.00 0.00 97 1004.7
20260831071549 54 0 0.0 0.0 0.00 0.00 0.00 96 1004.7
20260831071031 54 0 0.0 0.0 0.00 0.00 0.00 96 1004.6
20260831070531 54 0 0.0 0.0 0.00 0.00 0.00 97 1004.7
20260831070049 54 0 0.0 0.0 0.00 0.00 0.00 97 1004.7
20260831065535 54 0 0.0 0.0 0.00 0.00 0.00 97 1004.8
20260831065035 54 0 0.0 0.0 0.00 0.00 0.00 96 1004.7
20260831064553 53 0 0.0 0.0 0.00 0.00 0.00 97 1004.7
20260831064036 53 0 0.0 0.0 0.00 0.00 0.00 96 1004.6
20260831063534 53 0 0.0 0.0 0.00 0.00 0.00 97 1004.6
20260831063050 53 0 0.0 0.0 0.00 0.00 0.00 96 1004.5
20260831062536 52 0 0.0 0.0 0.00 0.00 0.00 96 1004.4
20260831062034 52 0 0.0 0.0 0.00 0.00 0.00 96 1004.4
20260831061548 52 0 0.0 0.0 0.00 0.00 0.00 96 1004.3
20260831061033 52 0 0.0 0.0 0.00 0.00 0.00 96 1004.4
20260831060532 52 0 0.0 0.0 0.00 0.00 0.00 96 1004.3
20260831060048 52 0 0.0 0.0 0.00 0.00 0.00 96 1004.3
20260831055535 51 0 0.0 0.0 0.00 0.00 0.00 96 1004.2
20260831055033 51 0 0.0 0.0 0.00 0.00 0.00 96 1004.2
20260831054551 51 0 0.0 0.0 0.00 0.00 0.00 96 1004.3
20260831054031 51 0 0.0 1.0 0.00 0.00 0.00 96 1004.1
20260831053531 51 0 0.0 1.0 0.00 0.00 0.00 96 1004.1
20260831053048 51 252 0.0 1.0 0.00 0.00 0.00 96 1004.1
20260831052531 51 0 0.0 0.0 0.00 0.00 0.00 96 1004.1
20260831052031 51 0 0.0 0.0 0.00 0.00 0.00 96 1004.1
20260831051555 51 0 0.0 0.0 0.00 0.00 0.00 96 1004.2
20260831051034 51 0 0.0 0.0 0.00 0.00 0.00 96 1004.2
20260831050532 51 0 0.0 0.0 0.00 0.00 0.00 96 1004.3
20260831050052 51 0 0.0 0.0 0.00 0.00 0.00 96 1004.2
20260831045534 50 0 0.0 0.0 0.00 0.00 0.00 96 1004.1
20260831045037 50 0 0.0 0.0 0.00 0.00 0.00 96 1004.1
20260831044602 50 0 0.0 0.0 0.00 0.00 0.00 96 1004.2
20260831044034 50 0 0.0 0.0 0.00 0.00 0.00 96 1004.1
20260831043531 50 0 0.0 0.0 0.00 0.00 0.00 96 1004.1
20260831043056 50 0 0.0 0.0 0.00 0.00 0.00 96 1004.0
20260831042531 50 0 0.0 0.0 0.00 0.00 0.00 96 1003.9
20260831042031 50 0 0.0 0.0 0.00 0.00 0.00 96 1003.9
20260831041601 50 0 0.0 0.0 0.00 0.00 0.00 96 1003.9
20260831041038 50 0 0.0 0.0 0.00 0.00 0.00 96 1003.8
20260831040534 50 0 0.0 0.0 0.00 0.00 0.00 96 1003.7
20260831040050 50 0 0.0 0.0 0.00 0.00 0.00 96 1003.7
20260831035537 50 0 0.0 0.0 0.00 0.00 0.00 96 1003.8
20260831035032 50 0 0.0 0.0 0.00 0.00 0.00 96 1003.7
20260831034546 50 0 0.0 0.0 0.00 0.00 0.00 96 1003.7
20260831034031 51 0 0.0 0.0 0.00 0.00 0.00 96 1003.7
20260831033534 51 0 0.0 0.0 0.00 0.00 0.00 96 1003.6
20260831033052 51 0 0.0 0.0 0.00 0.00 0.00 96 1003.7
20260831032531 51 0 0.0 0.0 0.00 0.00 0.00 96 1003.6
20260831032034 51 0 0.0 0.0 0.00 0.00 0.00 96 1003.6
20260831031547 51 0 0.0 0.0 0.00 0.00 0.00 96 1003.6
20260831031031 51 0 0.0 1.0 0.00 0.00 0.00 96 1003.6
20260831030535 51 0 0.0 1.0 0.00 0.00 0.00 96 1003.5
20260831030106 51 243 0.0 1.0 0.00 0.00 0.00 96 1003.5
20260831025531 51 0 0.0 2.0 0.00 0.00 0.00 96 1003.5
20260831025031 51 0 0.0 3.0 0.00 0.00 0.00 96 1003.4
20260831024554 51 345 1.0 3.0 0.00 0.00 0.00 96 1003.4
20260831024033 51 24 0.0 3.0 0.00 0.00 0.00 96 1003.3
20260831023534 52 0 0.0 0.0 0.00 0.00 0.00 96 1003.4
20260831023047 52 0 0.0 0.0 0.00 0.00 0.00 96 1003.4
20260831022534 52 0 0.0 0.0 0.00 0.00 0.00 96 1003.5
20260831022034 52 0 0.0 0.0 0.00 0.00 0.00 96 1003.5
20260831021600 52 0 0.0 0.0 0.00 0.00 0.00 96 1003.6
20260831021036 52 0 0.0 0.0 0.00 0.00 0.00 96 1003.6
20260831020534 52 0 0.0 0.0 0.00 0.00 0.00 96 1003.7
20260831020106 52 0 0.0 0.0 0.00 0.00 0.00 96 1003.5
20260831015533 53 0 0.0 0.0 0.00 0.00 0.00 96 1003.5
20260831015034 53 0 0.0 0.0 0.00 0.00 0.00 96 1003.5
20260831014602 53 0 0.0 0.0 0.00 0.00 0.00 96 1003.6
20260831014034 53 0 0.0 0.0 0.00 0.00 0.00 96 1003.6
20260831013534 52 0 0.0 0.0 0.00 0.00 0.00 96 1003.5
20260831013050 52 0 0.0 0.0 0.00 0.00 0.00 96 1003.6
20260831012534 52 0 0.0 0.0 0.00 0.00 0.00 96 1003.5
20260831012034 52 0 0.0 0.0 0.00 0.00 0.00 96 1003.5
20260831011604 53 0 0.0 0.0 0.00 0.00 0.00 96 1003.5
20260831011034 53 0 0.0 0.0 0.00 0.00 0.00 96 1003.5
20260831010534 53 0 0.0 0.0 0.00 0.00 0.00 96 1003.6
20260831010051 53 0 0.0 0.0 0.00 0.00 0.00 96 1003.6
20260831005534 53 0 0.0 0.0 0.00 0.00 0.00 96 1003.5
20260831005034 53 0 0.0 0.0 0.00 0.00 0.00 96 1003.6
20260831004550 53 0 0.0 0.0 0.00 0.00 0.00 96 1003.4
20260831004036 54 0 0.0 0.0 0.00 0.00 0.00 96 1003.4
20260831003533 53 0 0.0 0.0 0.00 0.00 0.00 96 1003.4
20260831003051 53 0 0.0 0.0 0.00 0.00 0.00 96 1003.6
20260831002537 53 0 0.0 0.0 0.00 0.00 0.00 96 1003.6
20260831002033 53 0 0.0 0.0 0.00 0.00 0.00 96 1003.6
20260831001602 53 0 0.0 0.0 0.00 0.00 0.00 96 1003.5
20260831001033 54 0 0.0 0.0 0.00 0.00 0.00 96 1003.5
20260831000533 54 0 0.0 0.0 0.00 0.00 0.00 96 1003.6
20260831000050 54 0 0.0 0.0 0.00 0.00 0.00 96 1003.5
20260830235536 54 0 0.0 0.0 0.00 0.00 0.00 96 1003.5
20260830235035 54 0 0.0 0.0 0.00 0.00 0.00 96 1003.3
20260830234549 55 0 0.0 0.0 0.00 0.00 0.00 96 1003.4
20260830234032 55 0 0.0 0.0 0.00 0.00 0.00 96 1003.3
20260830233533 55 0 0.0 0.0 0.00 0.00 0.00 96 1003.4
20260830233103 55 0 0.0 0.0 0.00 0.00 0.00 96 1003.3
20260830232536 55 0 0.0 0.0 0.00 0.00 0.00 95 1003.4
20260830232033 56 0 0.0 0.0 0.00 0.00 0.00 96 1003.4
20260830231555 57 0 0.0 0.0 0.00 0.00 0.00 96 1003.3
20260830231033 57 0 0.0 0.0 0.00 0.00 0.00 96 1003.3
20260830230532 57 0 0.0 0.0 0.00 0.00 0.00 96 1003.5
20260830230048 57 0 0.0 0.0 0.00 0.00 0.00 96 1003.3
20260830225532 57 0 0.0 0.0 0.00 0.00 0.00 96 1003.3
20260830225034 57 0 0.0 0.0 0.00 0.00 0.00 96 1003.5
20260830224628 57 0 0.0 0.0 0.00 0.00 0.00 95 1003.4
20260830224032 57 0 0.0 0.0 0.00 0.00 0.00 96 1003.4
20260830223532 58 0 0.0 0.0 0.00 0.00 0.00 96 1003.4
20260830223057 58 0 0.0 0.0 0.00 0.00 0.00 96 1003.3
20260830222531 58 0 0.0 0.0 0.00 0.00 0.00 95 1003.2
20260830222033 57 0 0.0 0.0 0.00 0.00 0.00 95 1003.3
20260830221553 57 0 0.0 0.0 0.00 0.00 0.00 95 1003.3
20260830221033 58 0 0.0 0.0 0.00 0.00 0.00 95 1003.3
20260830220533 57 0 0.0 0.0 0.00 0.00 0.00 95 1003.3
20260830220104 57 0 0.0 0.0 0.00 0.00 0.00 95 1003.3
20260830215531 58 0 0.0 0.0 0.00 0.00 0.00 95 1003.3
20260830215033 58 0 0.0 0.0 0.00 0.00 0.00 95 1003.4
20260830214558 58 0 0.0 0.0 0.00 0.00 0.00 95 1003.3
20260830214031 58 0 0.0 0.0 0.00 0.00 0.00 95 1003.4
20260830213531 58 0 0.0 0.0 0.00 0.00 0.00 95 1003.2
20260830213052 58 0 0.0 0.0 0.00 0.00 0.00 95 1003.4
20260830212534 58 0 0.0 0.0 0.00 0.00 0.00 95 1003.2
20260830212031 58 0 0.0 0.0 0.00 0.00 0.00 94 1003.2
20260830211559 58 0 0.0 0.0 0.00 0.00 0.00 94 1003.2
20260830211033 59 0 0.0 0.0 0.00 0.00 0.00 94 1003.1
20260830210534 59 0 0.0 1.0 0.00 0.00 0.00 94 1003.1
20260830205530 59 175 0.0 0.0 0.00 0.00 0.00 94 1003.1
20260830205030 59 0 0.0 0.0 0.00 0.00 0.00 94 1003.1
20260830204552 59 153 0.0 1.0 0.00 0.00 0.00 94 1003.2
20260830204031 59 153 0.0 1.0 0.00 0.00 0.00 94 1003.1
20260830203531 59 0 0.0 2.0 0.00 0.00 0.00 94 1003.1
20260830203049 59 0 0.0 2.0 0.00 0.00 0.00 94 1003.1
20260830202531 59 0 0.0 2.0 0.00 0.00 0.00 94 1003.0
20260830202032 59 166 0.0 2.0 0.00 0.00 0.00 93 1003.1
20260830201547 59 0 0.0 2.0 0.00 0.00 0.00 93 1003.1
20260830201033 59 167 0.0 1.0 0.00 0.00 0.00 93 1003.1
20260830200537 59 127 0.0 3.0 0.00 0.00 0.00 93 1003.1
20260830200054 59 150 0.0 3.0 0.00 0.00 0.00 93 1003.0
20260830195530 59 189 0.0 3.0 0.00 0.00 0.00 93 1003.1
20260830195031 59 186 1.0 3.0 0.00 0.00 0.00 93 1003.0
20260830194551 59 131 0.0 2.0 0.00 0.00 0.00 92 1003.1
20260830194036 59 0 0.0 2.0 0.00 0.00 0.00 92 1003.0
20260830193530 60 155 1.0 3.0 0.00 0.00 0.00 92 1003.1
20260830193048 60 139 0.0 3.0 0.00 0.00 0.00 92 1003.1
20260830192530 60 0 0.0 3.0 0.00 0.00 0.00 91 1003.0
20260830192033 60 0 0.0 0.0 0.00 0.00 0.00 91 1003.0
20260830191546 60 0 0.0 0.0 0.00 0.00 0.00 91 1003.0
20260830191031 60 0 0.0 0.0 0.00 0.00 0.00 91 1003.0
20260830190530 60 0 0.0 0.0 0.00 0.00 0.00 91 1002.9
20260830190053 60 0 0.0 0.0 0.00 0.00 0.00 91 1002.9
20260830185533 60 0 0.0 1.0 0.00 0.00 0.00 91 1002.9
20260830185032 60 0 0.0 2.0 0.00 0.00 0.00 91 1002.7
20260830184547 60 0 0.0 2.0 0.00 0.00 0.00 90 1002.8
20260830184033 60 162 0.0 1.0 0.00 0.00 0.00 90 1002.8
20260830183532 61 0 0.0 1.0 0.00 0.00 0.00 90 1002.7
20260830183048 61 126 0.0 1.0 0.00 0.00 0.00 90 1002.7
20260830182534 61 0 0.0 1.0 0.00 0.00 0.00 90 1002.7
20260830182032 61 129 0.0 2.0 0.00 0.00 0.00 90 1002.7
20260830181549 61 110 0.0 2.0 0.00 0.00 0.00 89 1002.7
20260830181032 61 0 0.0 2.0 0.00 0.00 0.00 89 1002.7
20260830180534 61 172 0.0 1.0 0.00 0.00 0.00 89 1002.7
20260830180053 61 0 0.0 1.0 0.00 0.00 0.00 89 1002.7
20260830175531 61 134 0.0 2.0 0.00 0.00 0.00 88 1002.6
20260830175031 61 0 0.0 2.0 0.00 0.00 0.00 88 1002.7
20260830174551 62 109 1.0 2.0 0.00 0.00 0.00 88 1002.5
20260830174033 62 0 0.0 4.0 0.00 0.00 0.00 88 1002.5
20260830173532 62 136 0.0 4.0 0.00 0.00 0.00 88 1002.5
20260830173045 62 195 2.0 4.0 0.00 0.00 0.00 88 1002.5
20260830172532 62 0 2.0 4.0 0.00 0.00 0.00 88 1002.5
20260830172032 62 160 1.0 5.0 0.00 0.00 0.00 88 1002.5
20260830171603 62 148 1.0 5.0 0.00 0.00 0.00 88 1002.5
20260830171031 62 210 2.0 5.0 0.00 0.00 0.00 87 1002.4
20260830170531 62 168 1.0 5.0 0.00 0.00 0.00 87 1002.5
20260830170048 62 148 2.0 5.0 0.00 0.00 0.00 87 1002.4
20260830165533 62 186 2.0 5.0 0.00 0.00 0.00 87 1002.4
20260830165034 62 169 3.0 5.0 0.00 0.00 0.00 87 1002.4
20260830164600 62 203 3.0 5.0 0.00 0.00 0.00 87 1002.4
20260830164032 62 146 2.0 6.0 0.00 0.00 0.00 86 1002.3
20260830163533 63 211 3.0 7.0 0.00 0.00 0.00 86 1002.3
20260830163053 63 189 3.0 7.0 0.00 0.00 0.00 86 1002.2
20260830162533 63 172 3.0 6.0 0.00 0.00 0.00 85 1002.2
20260830162032 63 196 3.0 6.0 0.00 0.00 0.00 85 1002.2
20260830161550 63 198 3.0 8.0 0.00 0.00 0.00 85 1002.2
20260830161032 63 166 4.0 8.0 0.00 0.00 0.00 84 1002.1
20260830160532 64 207 3.0 7.0 0.00 0.00 0.00 84 1002.2
20260830160050 64 207 3.0 6.0 0.00 0.00 0.00 84 1002.1
20260830155532 64 181 4.0 6.0 0.00 0.00 0.00 84 1002.2
20260830155032 64 146 3.0 7.0 0.00 0.00 0.00 83 1002.1
20260830154548 65 226 2.0 7.0 0.00 0.00 0.00 82 1002.1
20260830154031 66 165 2.0 9.0 0.00 0.00 0.00 81 1002.1
20260830153531 66 139 3.0 9.0 0.00 0.00 0.00 81 1002.0
20260830153055 66 146 3.0 10.0 0.00 0.00 0.00 80 1002.0
20260830152532 67 167 3.0 10.0 0.00 0.00 0.00 80 1002.0
20260830152033 67 75 3.0 10.0 0.00 0.00 0.00 78 1002.0
20260830151550 68 203 2.0 10.0 0.00 0.00 0.00 78 1002.1
20260830151034 67 188 3.0 8.0 0.00 0.00 0.00 80 1002.0
20260830150533 67 168 3.0 9.0 0.00 0.00 0.00 81 1002.0
20260830150047 67 219 4.0 9.0 0.00 0.00 0.00 79 1002.1
20260830145533 66 142 3.0 8.0 0.00 0.00 0.00 80 1002.0
20260830145034 66 113 4.0 7.0 0.00 0.00 0.00 81 1002.0
20260830144546 66 164 2.0 7.0 0.00 0.00 0.00 81 1002.1
20260830144033 66 217 3.0 7.0 0.00 0.00 0.00 81 1002.1
20260830143530 66 167 3.0 8.0 0.00 0.00 0.00 81 1002.2
20260830143107 65 226 3.0 10.0 0.00 0.00 0.00 80 1002.2
20260830142530 65 182 4.0 10.0 0.00 0.00 0.00 81 1002.2
20260830142030 66 226 5.0 10.0 0.00 0.00 0.00 81 1002.1
20260830141546 66 215 3.0 11.0 0.00 0.00 0.00 82 1002.1
20260830141034 66 96 4.0 11.0 0.00 0.00 0.00 81 1002.0
20260830140533 66 200 5.0 11.0 0.00 0.00 0.00 80 1002.0
20260830140053 66 207 6.0 10.0 0.00 0.00 0.00 81 1002.0
20260830135530 66 148 3.0 9.0 0.00 0.01 0.00 79 1002.1
20260830135033 67 95 4.0 8.0 0.00 0.01 0.00 80 1002.0
20260830134548 66 89 2.0 7.0 0.00 0.01 0.00 81 1002.0
20260830134032 66 120 3.0 8.0 0.00 0.01 0.00 82 1002.2
20260830133534 65 207 3.0 11.0 0.00 0.01 0.00 83 1002.0
20260830133055 65 140 3.0 11.0 0.00 0.01 0.00 84 1002.1
20260830132530 65 107 5.0 11.0 0.00 0.01 0.00 83 1002.1
20260830132033 65 113 3.0 9.0 0.00 0.01 0.00 84 1002.0
20260830131554 64 110 4.0 10.0 0.00 0.01 0.00 85 1002.0
20260830131033 64 185 5.0 14.0 0.00 0.01 0.00 84 1001.9
20260830130532 64 86 3.0 14.0 0.00 0.01 0.00 84 1002.0
20260830125532 65 160 2.0 5.0 0.00 0.06 0.00 83 1001.9
20260830125033 65 156 1.0 5.0 0.00 0.06 0.00 83 1001.8